User: anonymous   Login
Location: Bangkok
(13.7500°N, 100.5170°E)
Time: 11:12:12
(UTC+07:00)
Language:

Cosmos 1898 Rocket - Orbit

View from above orbital plane
View from above orbital plane
View from above satellite
View from above satellite

Ground track
Ground track

The orbit data is extracted from the following two-line orbital elements,

1 18586U 87098B   15148.62183304  .00000079  00000-0  35559-4 0  9993
2 18586 074.0074 237.2718 0019955 112.1468 351.2406 14.36626237439573
Epoch (UTC): 28 May 2015 14:55:26
Eccentricity: 0.0019955
inclination: 74.0074°
perigee height: 755 km
apogee height: 784 km
right ascension of ascending node: 237.2718°
argument of perigee: 112.1468°
revolutions per day: 14.36626237
mean anomaly at epoch: 351.2406°
orbit number at epoch: 43957

The dashed part of the orbit path shows where the satellite is in the earth's shadow,  

DLR